TimeCDT,TemperatureF,Dew PointF,Humidity,Sea Level PressureIn,VisibilityMPH,Wind Direction,Wind SpeedMPH,Gust SpeedMPH,PrecipitationIn,Events,Conditions,WindDirDegrees,DateUTC
12:15 AM,65.1,58.3,78,30.00,10.0,SSW,4.6,-,N/A,,Scattered Clouds,200,2013-10-16 05:15:00
12:35 AM,64.9,58.1,78,29.99,10.0,South,4.6,-,N/A,,Mostly Cloudy,180,2013-10-16 05:35:00
12:55 AM,64.8,58.1,79,29.98,10.0,South,4.6,-,N/A,,Scattered Clouds,190,2013-10-16 05:55:00
1:15 AM,64.4,58.1,80,29.98,10.0,South,6.9,-,N/A,,Scattered Clouds,180,2013-10-16 06:15:00
1:35 AM,64.4,57.9,79,29.98,10.0,South,6.9,-,N/A,,Scattered Clouds,190,2013-10-16 06:35:00
1:55 AM,64.4,57.6,78,29.97,10.0,South,4.6,-,N/A,,Scattered Clouds,190,2013-10-16 06:55:00
2:15 AM,64.4,57.4,78,29.97,10.0,SSW,4.6,-,N/A,,Scattered Clouds,210,2013-10-16 07:15:00
2:35 AM,64.4,57.4,78,29.97,10.0,South,3.5,-,N/A,,Mostly Cloudy,190,2013-10-16 07:35:00
2:55 AM,64.2,57.4,78,29.97,10.0,South,3.5,-,N/A,,Overcast,190,2013-10-16 07:55:00
3:15 AM,64.4,57.4,78,29.97,10.0,SSW,3.5,-,N/A,,Overcast,200,2013-10-16 08:15:00
3:35 AM,64.4,57.6,78,29.96,10.0,SSW,4.6,-,N/A,Rain,Rain,200,2013-10-16 08:35:00
3:55 AM,64.4,57.6,78,29.96,10.0,SSW,4.6,-,N/A,,Overcast,200,2013-10-16 08:55:00
4:15 AM,64.4,57.6,78,29.96,10.0,SSW,4.6,-,N/A,,Overcast,200,2013-10-16 09:15:00
4:35 AM,64.4,57.6,78,29.97,10.0,SSW,6.9,-,N/A,,Overcast,210,2013-10-16 09:35:00
4:55 AM,64.4,57.7,79,29.97,10.0,SW,4.6,-,N/A,,Overcast,220,2013-10-16 09:55:00
5:15 AM,64.4,58.1,80,29.97,10.0,SSW,3.5,-,N/A,,Overcast,200,2013-10-16 10:15:00
5:35 AM,64.0,58.1,81,29.97,10.0,SSW,5.8,-,N/A,,Light Drizzle,210,2013-10-16 10:35:00
5:55 AM,63.9,58.1,81,29.97,10.0,South,4.6,-,N/A,,Overcast,190,2013-10-16 10:55:00
6:15 AM,63.9,58.3,82,29.97,10.0,SSW,4.6,-,N/A,,Overcast,210,2013-10-16 11:15:00
6:35 AM,63.7,58.3,83,29.98,10.0,SSW,3.5,-,N/A,,Overcast,200,2013-10-16 11:35:00
6:55 AM,63.7,58.3,83,29.98,10.0,SSW,3.5,-,N/A,Rain,Rain,200,2013-10-16 11:55:00
7:15 AM,63.5,58.3,83,29.98,10.0,SSW,4.6,-,N/A,,Overcast,210,2013-10-16 12:15:00
7:35 AM,63.7,58.5,83,29.99,10.0,SSW,3.5,-,N/A,,Overcast,210,2013-10-16 12:35:00
7:55 AM,63.7,58.8,84,29.99,10.0,SSW,4.6,-,N/A,Rain,Light Rain,210,2013-10-16 12:55:00
8:15 AM,63.7,59.2,85,29.99,10.0,South,5.8,-,N/A,Rain,Rain,180,2013-10-16 13:15:00
8:35 AM,63.7,59.9,87,29.99,10.0,South,5.8,-,N/A,Rain,Rain,190,2013-10-16 13:35:00
8:55 AM,63.7,60.6,90,30.00,10.0,SSW,5.8,-,N/A,,Drizzle,210,2013-10-16 13:55:00
9:15 AM,63.7,61.5,93,30.00,10.0,SSW,4.6,-,N/A,,Drizzle,200,2013-10-16 14:15:00
9:35 AM,63.5,63.5,100,30.00,10.0,SW,5.8,-,N/A,Rain,Light Rain,220,2013-10-16 14:35:00
9:55 AM,63.7,63.7,100,30.00,10.0,SSW,5.8,-,N/A,Rain,Rain,200,2013-10-16 14:55:00
10:15 AM,63.3,63.3,100,30.00,7.0,SW,4.6,-,N/A,,Drizzle,230,2013-10-16 15:15:00
10:35 AM,63.5,63.5,100,30.00,7.0,SW,4.6,-,N/A,Rain,Light Rain,220,2013-10-16 15:35:00
10:55 AM,63.5,63.5,100,30.00,10.0,SW,3.5,-,N/A,Rain,Light Rain,220,2013-10-16 15:55:00
11:15 AM,63.5,63.5,100,30.01,5.0,SW,3.5,-,N/A,Rain,Rain,220,2013-10-16 16:15:00
11:35 AM,63.5,63.5,100,30.00,2.0,SW,4.6,-,N/A,Rain,Heavy Rain,220,2013-10-16 16:35:00
11:55 AM,63.5,63.5,100,30.00,2.5,SSW,3.5,-,N/A,Rain,Rain,210,2013-10-16 16:55:00
12:15 PM,63.7,63.7,100,29.99,7.0,SW,4.6,-,N/A,Rain,Light Rain,220,2013-10-16 17:15:00
12:35 PM,64.0,64.0,100,29.98,7.0,SW,4.6,-,N/A,Rain,Light Rain,220,2013-10-16 17:35:00
12:55 PM,64.2,64.2,100,29.98,4.0,SW,5.8,-,N/A,,Drizzle,220,2013-10-16 17:55:00
1:55 PM,63.3,63.3,100,29.96,5.0,Calm,Calm,-,N/A,Rain,Light Rain,0,2013-10-16 18:55:00
2:15 PM,63.0,63.0,100,29.96,4.0,NW,3.5,-,N/A,Rain,Light Rain,310,2013-10-16 19:15:00
2:35 PM,62.8,62.8,100,29.96,4.0,WNW,3.5,-,N/A,Rain,Light Rain,300,2013-10-16 19:35:00
2:55 PM,62.2,62.2,100,29.96,3.0,WNW,6.9,-,N/A,,Heavy Drizzle,300,2013-10-16 19:55:00
3:15 PM,61.3,61.3,100,29.96,2.5,Calm,Calm,-,N/A,Rain,Rain,0,2013-10-16 20:15:00
3:35 PM,61.0,61.0,100,29.96,5.0,Calm,Calm,-,N/A,,Drizzle,0,2013-10-16 20:35:00
3:55 PM,61.2,61.2,100,29.96,5.0,Calm,Calm,-,N/A,,Drizzle,0,2013-10-16 20:55:00
4:15 PM,61.2,61.2,100,29.96,3.0,Calm,Calm,-,N/A,Rain,Heavy Rain,0,2013-10-16 21:15:00
4:35 PM,61.2,61.2,100,29.96,4.0,Calm,Calm,-,N/A,,Drizzle,0,2013-10-16 21:35:00
4:55 PM,61.2,61.2,100,29.96,4.0,NNW,3.5,-,N/A,,Drizzle,330,2013-10-16 21:55:00
5:15 PM,61.0,61.0,100,29.96,4.0,NNW,3.5,-,N/A,,Drizzle,330,2013-10-16 22:15:00
5:35 PM,60.8,60.8,100,29.96,4.0,Calm,Calm,-,N/A,Rain,Light Rain,0,2013-10-16 22:35:00
5:55 PM,60.6,60.6,100,29.96,4.0,North,3.5,-,N/A,,Drizzle,350,2013-10-16 22:55:00
6:15 PM,59.7,59.7,100,29.97,5.0,North,4.6,-,N/A,,Heavy Drizzle,350,2013-10-16 23:15:00
6:35 PM,59.0,58.8,99,29.97,5.0,Calm,Calm,-,N/A,Rain,Heavy Rain,0,2013-10-16 23:35:00
6:55 PM,58.8,58.8,100,29.98,5.0,Calm,Calm,-,N/A,,Drizzle,0,2013-10-16 23:55:00
7:15 PM,59.0,59.0,100,29.97,5.0,Calm,Calm,-,N/A,Rain,Rain,0,2013-10-17 00:15:00
7:35 PM,59.2,59.2,100,29.98,7.0,Calm,Calm,-,N/A,,Overcast,0,2013-10-17 00:35:00
7:55 PM,59.2,59.2,100,29.97,5.0,Calm,Calm,-,N/A,Rain,Light Rain,0,2013-10-17 00:55:00
8:35 PM,58.5,58.5,100,29.98,7.0,Calm,Calm,-,N/A,Rain,Rain,0,2013-10-17 01:35:00
8:55 PM,58.3,58.3,100,29.98,7.0,Calm,Calm,-,N/A,,Overcast,0,2013-10-17 01:55:00
9:15 PM,58.6,58.6,100,29.98,5.0,Calm,Calm,-,N/A,,Overcast,0,2013-10-17 02:15:00
9:35 PM,58.6,58.6,100,29.98,5.0,Calm,Calm,-,N/A,,Overcast,0,2013-10-17 02:35:00
9:55 PM,58.6,58.6,100,29.97,7.0,Calm,Calm,-,N/A,,Overcast,0,2013-10-17 02:55:00
10:15 PM,58.5,58.5,100,29.97,5.0,Calm,Calm,-,N/A,,Overcast,0,2013-10-17 03:15:00
10:35 PM,57.7,57.7,100,29.97,10.0,North,4.6,-,N/A,,Overcast,360,2013-10-17 03:35:00
10:55 PM,57.4,57.4,100,29.97,7.0,North,3.5,-,N/A,,Overcast,350,2013-10-17 03:55:00
11:15 PM,57.4,57.4,100,29.96,7.0,North,3.5,-,N/A,,Light Drizzle,10,2013-10-17 04:15:00
11:35 PM,57.4,57.4,100,29.96,5.0,Calm,Calm,-,N/A,,Overcast,0,2013-10-17 04:35:00
11:55 PM,57.4,57.4,100,29.95,7.0,Calm,Calm,-,N/A,,Overcast,0,2013-10-17 04:55:00